Time,TemperatureF,DewpointF,PressureIn,WindDirection,WindDirectionDegrees,WindSpeedMPH,WindSpeedGustMPH,Humidity,HourlyPrecipIn,Conditions,Clouds,dailyrainin,SoftwareType,DateUTC
2013-02-15 00:00:00,59.0,59.0,30.07,East,90,0.0,7.0,100,0.01,,,0.00,Weather View 32 v70,2013-02-15 05:00:00,
2013-02-15 00:05:00,59.0,59.0,30.07,East,90,0.0,5.0,100,0.01,,,0.00,Weather View 32 v70,2013-02-15 05:05:00,
2013-02-15 00:10:00,60.0,60.0,30.07,East,90,0.0,5.0,100,0.01,,,0.00,Weather View 32 v70,2013-02-15 05:10:00,
2013-02-15 00:15:00,60.0,60.0,30.08,East,90,0.0,5.0,100,0.01,,,0.00,Weather View 32 v70,2013-02-15 05:15:00,
2013-02-15 00:20:00,60.0,60.0,30.08,East,90,0.0,4.0,100,0.01,,,0.00,Weather View 32 v70,2013-02-15 05:20:00,
2013-02-15 00:25:00,60.0,60.0,30.07,East,90,0.0,4.0,100,0.01,,,0.00,Weather View 32 v70,2013-02-15 05:25:00,
2013-02-15 00:30:00,60.0,60.0,30.07,East,90,0.0,4.0,100,0.01,,,0.00,Weather View 32 v70,2013-02-15 05:30:00,
2013-02-15 00:35:00,60.0,60.0,30.07,East,90,0.0,4.0,100,0.01,,,0.00,Weather View 32 v70,2013-02-15 05:35:00,
2013-02-15 00:45:00,60.0,60.0,30.06,East,90,0.0,4.0,100,0.00,,,0.00,Weather View 32 v70,2013-02-15 05:45:00,
2013-02-15 00:50:00,60.0,60.0,30.06,East,90,0.0,3.0,100,0.00,,,0.00,Weather View 32 v70,2013-02-15 05:50:00,
2013-02-15 00:55:00,60.0,60.0,30.06,East,90,0.0,3.0,100,0.00,,,0.00,Weather View 32 v70,2013-02-15 05:55:00,
2013-02-15 01:00:00,60.0,60.0,30.06,East,90,0.0,3.0,100,0.00,,,0.00,Weather View 32 v70,2013-02-15 06:00:00,
2013-02-15 01:05:00,60.0,60.0,30.06,East,90,0.0,0.0,100,0.00,,,0.00,Weather View 32 v70,2013-02-15 06:05:00,
2013-02-15 01:10:00,60.0,60.0,30.06,East,90,0.0,0.0,100,0.00,,,0.00,Weather View 32 v70,2013-02-15 06:10:00,
2013-02-15 01:15:00,60.0,60.0,30.05,East,90,0.0,0.0,100,0.00,,,0.00,Weather View 32 v70,2013-02-15 06:15:00,
2013-02-15 01:25:00,60.0,60.0,30.04,East,90,0.0,0.0,100,0.00,,,0.00,Weather View 32 v70,2013-02-15 06:25:00,
2013-02-15 01:30:00,60.0,60.0,30.04,East,90,0.0,0.0,100,0.00,,,0.00,Weather View 32 v70,2013-02-15 06:30:00,
2013-02-15 01:32:00,60.0,60.0,30.04,East,90,0.0,0.0,100,0.00,,,0.00,Weather View 32 v70,2013-02-15 06:32:00,
2013-02-15 01:40:00,60.0,60.0,30.04,East,90,0.0,0.0,100,0.00,,,0.00,Weather View 32 v70,2013-02-15 06:40:00,
2013-02-15 01:45:00,60.0,60.0,30.03,East,90,0.0,0.0,100,0.00,,,0.00,Weather View 32 v70,2013-02-15 06:45:00,
2013-02-15 01:50:00,60.0,60.0,30.03,East,90,0.0,0.0,100,0.00,,,0.00,Weather View 32 v70,2013-02-15 06:50:00,
2013-02-15 01:55:00,60.0,60.0,30.05,East,90,0.0,0.0,100,0.00,,,0.00,Weather View 32 v70,2013-02-15 06:55:00,
2013-02-15 02:00:00,60.0,60.0,30.05,East,90,0.0,0.0,100,0.00,,,0.00,Weather View 32 v70,2013-02-15 07:00:00,
2013-02-15 02:05:00,60.0,60.0,30.06,East,90,0.0,0.0,100,0.00,,,0.00,Weather View 32 v70,2013-02-15 07:05:00,
2013-02-15 02:10:00,60.0,60.0,30.06,East,90,0.0,0.0,100,0.00,,,0.00,Weather View 32 v70,2013-02-15 07:10:00,
2013-02-15 02:20:00,60.0,60.0,30.05,East,90,0.0,0.0,100,0.00,,,0.00,Weather View 32 v70,2013-02-15 07:20:00,
2013-02-15 02:30:00,60.0,60.0,30.06,East,90,0.0,0.0,100,0.01,,,0.01,Weather View 32 v70,2013-02-15 07:30:00,
2013-02-15 02:32:00,60.0,60.0,30.06,East,90,0.0,0.0,100,0.01,,,0.01,Weather View 32 v70,2013-02-15 07:32:00,
2013-02-15 02:40:00,60.0,60.0,30.06,East,90,0.0,0.0,100,0.01,,,0.01,Weather View 32 v70,2013-02-15 07:40:00,
2013-02-15 02:45:00,60.0,60.0,30.07,NNE,22,0.0,0.0,100,0.01,,,0.01,Weather View 32 v70,2013-02-15 07:45:00,
2013-02-15 02:55:00,60.0,60.0,30.08,NNE,22,0.0,4.0,100,0.01,,,0.01,Weather View 32 v70,2013-02-15 07:55:00,
2013-02-15 03:00:00,60.0,60.0,30.08,SE,135,0.0,4.0,100,0.01,,,0.01,Weather View 32 v70,2013-02-15 08:00:00,
2013-02-15 03:05:00,60.0,60.0,30.08,SW,225,3.0,6.0,100,0.01,,,0.01,Weather View 32 v70,2013-02-15 08:05:00,
2013-02-15 03:10:00,60.0,60.0,30.08,NNE,22,0.0,6.0,100,0.01,,,0.01,Weather View 32 v70,2013-02-15 08:10:00,
2013-02-15 06:40:00,57.0,57.0,30.10,North,360,0.0,5.0,100,0.01,,,0.05,Weather View 32 v70,2013-02-15 11:40:00,
2013-02-15 06:50:00,57.0,57.0,30.09,NNE,22,0.0,4.0,100,0.01,,,0.05,Weather View 32 v70,2013-02-15 11:50:00,
2013-02-15 06:55:00,57.0,57.0,30.10,North,360,3.0,5.0,100,0.01,,,0.05,Weather View 32 v70,2013-02-15 11:55:00,
2013-02-15 07:00:00,57.0,57.0,30.10,North,360,0.0,5.0,100,0.01,,,0.05,Weather View 32 v70,2013-02-15 12:00:00,
2013-02-15 07:05:00,57.0,57.0,30.09,NNW,337,0.0,5.0,100,0.01,,,0.05,Weather View 32 v70,2013-02-15 12:05:00,
2013-02-15 07:10:00,57.0,57.0,30.09,North,360,0.0,5.0,100,0.01,,,0.05,Weather View 32 v70,2013-02-15 12:10:00,
2013-02-15 07:15:00,57.0,57.0,30.09,North,360,0.0,5.0,100,0.01,,,0.05,Weather View 32 v70,2013-02-15 12:15:00,
2013-02-15 07:20:00,57.0,57.0,30.09,North,360,0.0,5.0,100,0.01,,,0.05,Weather View 32 v70,2013-02-15 12:20:00,
2013-02-15 07:25:00,57.0,57.0,30.11,North,360,0.0,5.0,100,0.00,,,0.05,Weather View 32 v70,2013-02-15 12:25:00,
2013-02-15 07:35:00,57.0,57.0,30.10,North,360,0.0,5.0,100,0.00,,,0.05,Weather View 32 v70,2013-02-15 12:35:00,
2013-02-15 07:40:00,57.0,57.0,30.10,North,360,0.0,5.0,100,0.00,,,0.05,Weather View 32 v70,2013-02-15 12:40:00,
2013-02-15 07:50:00,57.0,57.0,30.10,North,360,0.0,5.0,100,0.00,,,0.05,Weather View 32 v70,2013-02-15 12:50:00,
2013-02-15 07:55:00,58.0,58.0,30.11,North,360,0.0,5.0,100,0.00,,,0.05,Weather View 32 v70,2013-02-15 12:55:00,
2013-02-15 08:00:00,58.0,58.0,30.11,North,360,0.0,5.0,100,0.00,,,0.05,Weather View 32 v70,2013-02-15 13:00:00,
2013-02-15 08:10:00,58.0,58.0,30.10,North,360,0.0,5.0,100,0.00,,,0.05,Weather View 32 v70,2013-02-15 13:10:00,
2013-02-15 08:20:00,58.0,58.0,30.11,North,360,0.0,3.0,100,0.00,,,0.05,Weather View 32 v70,2013-02-15 13:20:00,
2013-02-15 08:25:00,58.0,58.0,30.12,North,360,0.0,3.0,100,0.00,,,0.05,Weather View 32 v70,2013-02-15 13:25:00,
2013-02-15 08:30:00,58.0,58.0,30.12,North,360,0.0,3.0,100,0.00,,,0.05,Weather View 32 v70,2013-02-15 13:30:00,
2013-02-15 08:35:00,58.0,58.0,30.12,NNW,337,0.0,4.0,100,0.00,,,0.05,Weather View 32 v70,2013-02-15 13:35:00,
2013-02-15 08:40:00,58.0,58.0,30.12,WNW,292,0.0,4.0,100,0.00,,,0.05,Weather View 32 v70,2013-02-15 13:40:00,
2013-02-15 08:41:00,58.0,58.0,30.12,WNW,292,0.0,4.0,100,0.00,,,0.05,Weather View 32 v70,2013-02-15 13:41:00,
2013-02-15 08:45:00,58.0,58.0,30.13,West,270,0.0,4.0,100,0.00,,,0.05,Weather View 32 v70,2013-02-15 13:45:00,
2013-02-15 08:50:00,58.0,58.0,30.13,NNE,22,0.0,5.0,100,0.00,,,0.05,Weather View 32 v70,2013-02-15 13:50:00,
2013-02-15 08:55:00,58.0,58.0,30.14,North,360,0.0,7.0,100,0.00,,,0.05,Weather View 32 v70,2013-02-15 13:55:00,
2013-02-15 09:00:00,58.0,58.0,30.14,North,360,0.0,7.0,100,0.00,,,0.05,Weather View 32 v70,2013-02-15 14:00:00,
2013-02-15 09:10:00,58.0,58.0,30.14,NNW,337,2.0,7.0,100,0.00,,,0.05,Weather View 32 v70,2013-02-15 14:10:00,
2013-02-15 09:20:00,58.0,58.0,30.15,NNE,22,0.0,7.0,100,0.00,,,0.05,Weather View 32 v70,2013-02-15 14:20:00,
2013-02-15 09:30:00,58.0,58.0,30.15,North,360,0.0,7.0,100,0.00,,,0.05,Weather View 32 v70,2013-02-15 14:30:00,
2013-02-15 09:35:00,58.0,58.0,30.15,North,360,0.0,7.0,100,0.00,,,0.05,Weather View 32 v70,2013-02-15 14:35:00,
2013-02-15 09:40:00,58.0,58.0,30.15,SSW,202,0.0,7.0,100,0.00,,,0.05,Weather View 32 v70,2013-02-15 14:40:00,
2013-02-15 09:41:00,58.0,58.0,30.15,SSW,202,0.0,7.0,100,0.00,,,0.05,Weather View 32 v70,2013-02-15 14:41:00,
2013-02-15 09:50:00,59.0,59.0,30.15,NW,315,1.0,7.0,100,0.00,,,0.05,Weather View 32 v70,2013-02-15 14:50:00,
2013-02-15 09:55:00,59.0,59.0,30.15,NW,315,0.0,7.0,100,0.00,,,0.05,Weather View 32 v70,2013-02-15 14:55:00,
2013-02-15 10:05:00,60.0,60.0,30.15,NE,45,0.0,6.0,100,0.00,,,0.05,Weather View 32 v70,2013-02-15 15:05:00,
2013-02-15 10:10:00,60.0,60.0,30.15,NNE,22,0.0,6.0,100,0.00,,,0.05,Weather View 32 v70,2013-02-15 15:10:00,
2013-02-15 10:15:00,60.0,60.0,30.14,North,360,0.0,6.0,100,0.00,,,0.05,Weather View 32 v70,2013-02-15 15:15:00,
2013-02-15 10:20:00,60.0,60.0,30.14,NNW,337,1.0,6.0,100,0.00,,,0.05,Weather View 32 v70,2013-02-15 15:20:00,
2013-02-15 10:25:00,61.0,61.0,30.13,NNW,337,0.0,6.0,100,0.00,,,0.05,Weather View 32 v70,2013-02-15 15:25:00,
2013-02-15 10:30:00,61.0,61.0,30.13,NNW,337,1.0,6.0,100,0.00,,,0.05,Weather View 32 v70,2013-02-15 15:30:00,
2013-02-15 10:35:00,61.0,60.7,30.13,NNW,337,0.0,6.0,99,0.00,,,0.05,Weather View 32 v70,2013-02-15 15:35:00,
2013-02-15 10:42:00,61.0,60.7,30.13,NNW,337,0.0,6.0,99,0.00,,,0.05,Weather View 32 v70,2013-02-15 15:42:00,
2013-02-15 10:45:00,61.0,61.0,30.13,NNW,337,1.0,6.0,100,0.00,,,0.05,Weather View 32 v70,2013-02-15 15:45:00,
2013-02-15 10:55:00,62.0,61.7,30.12,NW,315,0.0,6.0,99,0.00,,,0.05,Weather View 32 v70,2013-02-15 15:55:00,
2013-02-15 11:00:00,62.0,61.1,30.12,NW,315,0.0,6.0,97,0.00,,,0.05,Weather View 32 v70,2013-02-15 16:00:00,
2013-02-15 11:05:00,63.0,61.8,30.12,NW,315,0.0,6.0,96,0.00,,,0.05,Weather View 32 v70,2013-02-15 16:05:00,
2013-02-15 11:10:00,63.0,61.8,30.12,North,360,0.0,6.0,96,0.00,,,0.05,Weather View 32 v70,2013-02-15 16:10:00,
2013-02-15 11:15:00,63.0,62.4,30.12,North,360,0.0,6.0,98,0.00,,,0.05,Weather View 32 v70,2013-02-15 16:15:00,
2013-02-15 11:20:00,63.0,61.5,30.12,North,360,3.0,6.0,95,0.00,,,0.05,Weather View 32 v70,2013-02-15 16:20:00,
2013-02-15 11:25:00,63.0,61.5,30.12,North,360,0.0,6.0,95,0.00,,,0.05,Weather View 32 v70,2013-02-15 16:25:00,
2013-02-15 11:30:00,63.0,61.5,30.12,NNE,22,0.0,6.0,95,0.00,,,0.05,Weather View 32 v70,2013-02-15 16:30:00,
2013-02-15 11:35:00,63.0,61.2,30.12,NE,45,0.0,6.0,94,0.00,,,0.05,Weather View 32 v70,2013-02-15 16:35:00,
2013-02-15 11:40:00,63.0,61.5,30.12,NE,45,0.0,6.0,95,0.00,,,0.05,Weather View 32 v70,2013-02-15 16:40:00,
2013-02-15 11:43:00,63.0,61.5,30.12,NE,45,0.0,6.0,95,0.00,,,0.05,Weather View 32 v70,2013-02-15 16:43:00,
2013-02-15 11:45:00,63.0,61.8,30.12,ESE,112,0.0,6.0,96,0.00,,,0.05,Weather View 32 v70,2013-02-15 16:45:00,
2013-02-15 11:50:00,63.0,61.2,30.12,ESE,112,0.0,6.0,94,0.00,,,0.05,Weather View 32 v70,2013-02-15 16:50:00,
2013-02-15 11:55:00,63.0,61.2,30.12,NE,45,0.0,6.0,94,0.00,,,0.05,Weather View 32 v70,2013-02-15 16:55:00,
2013-02-15 12:00:00,63.0,60.3,30.12,West,270,0.0,6.0,91,0.00,,,0.05,Weather View 32 v70,2013-02-15 17:00:00,
2013-02-15 12:05:00,63.0,60.6,30.12,NNE,22,0.0,6.0,92,0.00,,,0.05,Weather View 32 v70,2013-02-15 17:05:00,
2013-02-15 12:10:00,63.0,60.0,30.12,West,270,0.0,6.0,90,0.00,,,0.05,Weather View 32 v70,2013-02-15 17:10:00,
2013-02-15 12:15:00,63.0,60.9,30.13,NNW,337,1.0,6.0,93,0.00,,,0.05,Weather View 32 v70,2013-02-15 17:15:00,
2013-02-15 12:20:00,63.0,59.7,30.13,NNE,22,0.0,6.0,89,0.00,,,0.05,Weather View 32 v70,2013-02-15 17:20:00,
2013-02-15 12:25:00,63.0,60.0,30.12,North,360,0.0,6.0,90,0.00,,,0.05,Weather View 32 v70,2013-02-15 17:25:00,
2013-02-15 12:30:00,63.0,59.1,30.12,WSW,247,0.0,6.0,87,0.00,,,0.05,Weather View 32 v70,2013-02-15 17:30:00,
2013-02-15 12:40:00,64.0,61.0,30.10,North,360,0.0,6.0,90,0.00,,,0.05,Weather View 32 v70,2013-02-15 17:40:00,
2013-02-15 12:43:00,64.0,61.0,30.10,North,360,0.0,6.0,90,0.00,,,0.05,Weather View 32 v70,2013-02-15 17:43:00,
2013-02-15 12:45:00,64.0,61.3,30.10,North,360,0.0,6.0,91,0.00,,,0.05,Weather View 32 v70,2013-02-15 17:45:00,
2013-02-15 12:50:00,65.0,60.4,30.10,NNE,22,2.0,6.0,85,0.00,,,0.05,Weather View 32 v70,2013-02-15 17:50:00,
2013-02-15 12:55:00,65.0,60.4,30.10,North,360,0.0,6.0,85,0.00,,,0.05,Weather View 32 v70,2013-02-15 17:55:00,
2013-02-15 13:00:00,65.0,60.4,30.10,North,360,0.0,6.0,85,0.00,,,0.05,Weather View 32 v70,2013-02-15 18:00:00,
2013-02-15 13:05:00,65.0,60.7,30.10,WSW,247,0.0,6.0,86,0.00,,,0.05,Weather View 32 v70,2013-02-15 18:05:00,
2013-02-15 13:10:00,65.0,61.0,30.10,WSW,247,0.0,6.0,87,0.00,,,0.05,Weather View 32 v70,2013-02-15 18:10:00,
2013-02-15 13:15:00,65.0,60.4,30.10,NW,315,1.0,6.0,85,0.00,,,0.05,Weather View 32 v70,2013-02-15 18:15:00,
2013-02-15 13:20:00,65.0,59.7,30.10,NW,315,0.0,6.0,83,0.00,,,0.05,Weather View 32 v70,2013-02-15 18:20:00,
2013-02-15 13:25:00,66.0,60.7,30.08,NNE,22,1.0,6.0,83,0.00,,,0.05,Weather View 32 v70,2013-02-15 18:25:00,
2013-02-15 13:30:00,66.0,59.6,30.08,NE,45,1.0,6.0,80,0.00,,,0.05,Weather View 32 v70,2013-02-15 18:30:00,
2013-02-15 13:35:00,66.0,60.0,30.08,WSW,247,4.0,5.0,81,0.00,,,0.05,Weather View 32 v70,2013-02-15 18:35:00,
2013-02-15 13:40:00,66.0,59.6,30.08,WSW,247,3.0,5.0,80,0.00,,,0.05,Weather View 32 v70,2013-02-15 18:40:00,
2013-02-15 13:45:00,66.0,59.3,30.07,WSW,247,2.0,5.0,79,0.00,,,0.05,Weather View 32 v70,2013-02-15 18:45:00,
2013-02-15 13:50:00,67.0,58.4,30.07,West,270,1.0,5.0,74,0.00,,,0.05,Weather View 32 v70,2013-02-15 18:50:00,
2013-02-15 14:00:00,68.0,61.6,30.06,WSW,247,0.0,5.0,80,0.00,,,0.05,Weather View 32 v70,2013-02-15 19:00:00,
2013-02-15 14:05:00,68.0,61.6,30.05,West,270,0.0,5.0,80,0.00,,,0.05,Weather View 32 v70,2013-02-15 19:05:00,
2013-02-15 14:10:00,68.0,60.1,30.05,NW,315,0.0,5.0,76,0.00,,,0.05,Weather View 32 v70,2013-02-15 19:10:00,
2013-02-15 14:15:00,68.0,60.9,30.04,NW,315,0.0,5.0,78,0.00,,,0.05,Weather View 32 v70,2013-02-15 19:15:00,
2013-02-15 14:20:00,68.0,61.6,30.04,NW,315,0.0,5.0,80,0.00,,,0.05,Weather View 32 v70,2013-02-15 19:20:00,
2013-02-15 14:25:00,69.0,60.7,30.04,NNW,337,1.0,5.0,75,0.00,,,0.05,Weather View 32 v70,2013-02-15 19:25:00,
2013-02-15 14:30:00,69.0,61.5,30.04,NE,45,0.0,5.0,77,0.00,,,0.05,Weather View 32 v70,2013-02-15 19:30:00,
2013-02-15 14:40:00,69.0,59.6,30.03,North,360,0.0,6.0,72,0.00,,,0.05,Weather View 32 v70,2013-02-15 19:40:00,
2013-02-15 14:44:00,69.0,59.6,30.03,North,360,0.0,6.0,72,0.00,,,0.05,Weather View 32 v70,2013-02-15 19:44:00,
2013-02-15 14:45:00,69.0,60.0,30.03,North,360,0.0,6.0,73,0.00,,,0.05,Weather View 32 v70,2013-02-15 19:45:00,
2013-02-15 14:50:00,69.0,61.1,30.03,North,360,0.0,6.0,76,0.00,,,0.05,Weather View 32 v70,2013-02-15 19:50:00,
2013-02-15 14:55:00,69.0,60.7,30.02,North,360,0.0,6.0,75,0.00,,,0.05,Weather View 32 v70,2013-02-15 19:55:00,
2013-02-15 15:00:00,69.0,59.6,30.02,East,90,0.0,6.0,72,0.00,,,0.05,Weather View 32 v70,2013-02-15 20:00:00,
2013-02-15 15:10:00,69.0,58.8,30.02,East,90,2.0,6.0,70,0.00,,,0.05,Weather View 32 v70,2013-02-15 20:10:00,
2013-02-15 15:15:00,69.0,60.7,30.02,East,90,0.0,6.0,75,0.00,,,0.05,Weather View 32 v70,2013-02-15 20:15:00,
2013-02-15 15:20:00,69.0,60.0,30.02,WSW,247,1.0,6.0,73,0.00,,,0.05,Weather View 32 v70,2013-02-15 20:20:00,
2013-02-15 15:25:00,70.0,60.9,30.01,NNE,22,0.0,6.0,73,0.00,,,0.05,Weather View 32 v70,2013-02-15 20:25:00,
2013-02-15 15:30:00,70.0,60.9,30.01,West,270,0.0,6.0,73,0.00,,,0.05,Weather View 32 v70,2013-02-15 20:30:00,
2013-02-15 15:35:00,70.0,60.9,30.01,West,270,0.0,6.0,73,0.00,,,0.05,Weather View 32 v70,2013-02-15 20:35:00,
2013-02-15 15:40:00,70.0,60.1,30.01,NNW,337,0.0,6.0,71,0.00,,,0.05,Weather View 32 v70,2013-02-15 20:40:00,
2013-02-15 15:45:00,70.0,60.1,30.01,NNW,337,0.0,6.0,71,0.00,,,0.05,Weather View 32 v70,2013-02-15 20:45:00,
2013-02-15 15:55:00,71.0,59.5,30.00,SW,225,2.0,6.0,67,0.00,,,0.05,Weather View 32 v70,2013-02-15 20:55:00,
2013-02-15 16:00:00,71.0,60.7,30.00,SW,225,2.0,6.0,70,0.00,,,0.05,Weather View 32 v70,2013-02-15 21:00:00,
2013-02-15 16:10:00,71.0,60.3,30.00,SW,225,0.0,6.0,69,0.00,,,0.05,Weather View 32 v70,2013-02-15 21:10:00,
2013-02-15 16:15:00,72.0,60.8,30.00,SW,225,2.0,6.0,68,0.00,,,0.05,Weather View 32 v70,2013-02-15 21:15:00,
2013-02-15 16:20:00,72.0,60.8,30.00,SW,225,0.0,6.0,68,0.00,,,0.05,Weather View 32 v70,2013-02-15 21:20:00,
2013-02-15 16:30:00,71.0,58.6,30.00,SW,225,0.0,6.0,65,0.00,,,0.05,Weather View 32 v70,2013-02-15 21:30:00,
2013-02-15 16:35:00,71.0,59.0,30.00,SW,225,1.0,6.0,66,0.00,,,0.05,Weather View 32 v70,2013-02-15 21:35:00,
2013-02-15 16:40:00,70.0,59.7,30.00,SW,225,0.0,6.0,70,0.00,,,0.05,Weather View 32 v70,2013-02-15 21:40:00,
2013-02-15 16:45:00,70.0,60.1,30.00,SW,225,0.0,6.0,71,0.00,,,0.05,Weather View 32 v70,2013-02-15 21:45:00,
2013-02-15 16:50:00,70.0,60.5,30.00,SW,225,0.0,6.0,72,0.00,,,0.05,Weather View 32 v70,2013-02-15 21:50:00,
2013-02-15 16:55:00,70.0,60.9,30.00,SW,225,0.0,6.0,73,0.00,,,0.05,Weather View 32 v70,2013-02-15 21:55:00,
2013-02-15 17:00:00,69.0,60.0,30.00,SE,135,1.0,6.0,73,0.00,,,0.05,Weather View 32 v70,2013-02-15 22:00:00,
2013-02-15 17:10:00,67.0,59.9,30.02,SE,135,2.0,6.0,78,0.00,,,0.05,Weather View 32 v70,2013-02-15 22:10:00,
2013-02-15 17:15:00,67.0,60.2,30.02,SE,135,0.0,6.0,79,0.00,,,0.05,Weather View 32 v70,2013-02-15 22:15:00,
2013-02-15 17:20:00,67.0,60.2,30.02,SE,135,0.0,5.0,79,0.00,,,0.05,Weather View 32 v70,2013-02-15 22:20:00,
2013-02-15 17:30:00,68.0,61.2,30.02,SE,135,0.0,5.0,79,0.00,,,0.05,Weather View 32 v70,2013-02-15 22:30:00,
2013-02-15 17:35:00,69.0,60.7,30.01,SE,135,0.0,5.0,75,0.00,,,0.05,Weather View 32 v70,2013-02-15 22:35:00,
2013-02-15 17:40:00,69.0,60.7,30.01,SE,135,0.0,5.0,75,0.00,,,0.05,Weather View 32 v70,2013-02-15 22:40:00,
2013-02-15 17:46:00,69.0,60.7,30.01,SE,135,0.0,5.0,75,0.00,,,0.05,Weather View 32 v70,2013-02-15 22:46:00,
2013-02-15 17:50:00,68.0,59.8,30.01,SE,135,0.0,5.0,75,0.00,,,0.05,Weather View 32 v70,2013-02-15 22:50:00,
2013-02-15 17:55:00,67.0,59.2,30.00,SE,135,0.0,5.0,76,0.00,,,0.05,Weather View 32 v70,2013-02-15 22:55:00,
2013-02-15 18:00:00,67.0,59.9,30.00,SE,135,0.0,5.0,78,0.00,,,0.05,Weather View 32 v70,2013-02-15 23:00:00,
2013-02-15 18:05:00,67.0,60.2,30.01,SE,135,0.0,5.0,79,0.00,,,0.05,Weather View 32 v70,2013-02-15 23:05:00,
2013-02-15 18:10:00,66.0,60.0,30.01,SE,135,0.0,5.0,81,0.00,,,0.05,Weather View 32 v70,2013-02-15 23:10:00,
2013-02-15 18:15:00,65.0,59.4,30.02,SE,135,0.0,5.0,82,0.00,,,0.05,Weather View 32 v70,2013-02-15 23:15:00,
2013-02-15 18:20:00,65.0,59.7,30.02,SE,135,0.0,3.0,83,0.00,,,0.05,Weather View 32 v70,2013-02-15 23:20:00,
2013-02-15 18:30:00,64.0,60.4,30.02,SE,135,0.0,3.0,88,0.00,,,0.05,Weather View 32 v70,2013-02-15 23:30:00,
2013-02-15 18:35:00,63.0,59.4,30.02,SE,135,0.0,3.0,88,0.00,,,0.05,Weather View 32 v70,2013-02-15 23:35:00,
2013-02-15 18:40:00,63.0,59.7,30.02,SE,135,0.0,3.0,89,0.00,,,0.05,Weather View 32 v70,2013-02-15 23:40:00,
2013-02-15 18:45:00,62.0,59.0,30.03,SE,135,0.0,3.0,90,0.00,,,0.05,Weather View 32 v70,2013-02-15 23:45:00,
2013-02-15 18:47:00,62.0,59.0,30.03,SE,135,0.0,3.0,90,0.00,,,0.05,Weather View 32 v70,2013-02-15 23:47:00,
2013-02-15 18:50:00,62.0,59.0,30.03,SE,135,0.0,3.0,90,0.00,,,0.05,Weather View 32 v70,2013-02-15 23:50:00,
2013-02-15 18:55:00,62.0,59.3,30.03,SE,135,0.0,3.0,91,0.00,,,0.05,Weather View 32 v70,2013-02-15 23:55:00,
2013-02-15 19:00:00,61.0,58.7,30.03,SE,135,0.0,3.0,92,0.00,,,0.05,Weather View 32 v70,2013-02-16 00:00:00,
2013-02-15 19:05:00,61.0,59.0,30.04,SE,135,0.0,0.0,93,0.00,,,0.05,Weather View 32 v70,2013-02-16 00:05:00,
2013-02-15 19:10:00,60.0,58.0,30.04,SE,135,0.0,0.0,93,0.00,,,0.05,Weather View 32 v70,2013-02-16 00:10:00,
2013-02-15 19:15:00,60.0,58.3,30.04,SE,135,0.0,0.0,94,0.00,,,0.05,Weather View 32 v70,2013-02-16 00:15:00,
2013-02-15 19:20:00,60.0,58.3,30.04,SE,135,0.0,0.0,94,0.00,,,0.05,Weather View 32 v70,2013-02-16 00:20:00,
2013-02-15 19:30:00,59.0,57.3,30.04,SE,135,0.0,0.0,94,0.00,,,0.05,Weather View 32 v70,2013-02-16 00:30:00,
2013-02-15 19:35:00,59.0,57.6,30.05,SE,135,0.0,0.0,95,0.00,,,0.05,Weather View 32 v70,2013-02-16 00:35:00,
2013-02-15 19:40:00,58.0,56.3,30.05,SE,135,0.0,0.0,94,0.00,,,0.05,Weather View 32 v70,2013-02-16 00:40:00,
2013-02-15 19:45:00,58.0,56.3,30.05,SE,135,0.0,0.0,94,0.00,,,0.05,Weather View 32 v70,2013-02-16 00:45:00,
2013-02-15 19:47:00,58.0,56.3,30.05,SE,135,0.0,0.0,94,0.00,,,0.05,Weather View 32 v70,2013-02-16 00:47:00,
2013-02-15 19:55:00,57.0,55.6,30.04,SE,135,0.0,0.0,95,0.00,,,0.05,Weather View 32 v70,2013-02-16 00:55:00,
2013-02-15 20:00:00,57.0,55.9,30.04,SE,135,0.0,0.0,96,0.00,,,0.05,Weather View 32 v70,2013-02-16 01:00:00,
2013-02-15 20:05:00,57.0,55.9,30.05,SE,135,0.0,0.0,96,0.00,,,0.05,Weather View 32 v70,2013-02-16 01:05:00,
2013-02-15 20:10:00,56.0,54.9,30.05,SE,135,0.0,0.0,96,0.00,,,0.05,Weather View 32 v70,2013-02-16 01:10:00,
2013-02-15 20:15:00,56.0,54.9,30.06,SE,135,0.0,0.0,96,0.00,,,0.05,Weather View 32 v70,2013-02-16 01:15:00,
2013-02-15 20:20:00,56.0,55.2,30.06,SE,135,0.0,0.0,97,0.00,,,0.05,Weather View 32 v70,2013-02-16 01:20:00,
2013-02-15 20:25:00,56.0,55.4,30.06,SE,135,0.0,0.0,98,0.00,,,0.05,Weather View 32 v70,2013-02-16 01:25:00,
2013-02-15 20:30:00,56.0,56.0,30.06,SE,135,0.0,0.0,100,0.00,,,0.05,Weather View 32 v70,2013-02-16 01:30:00,
2013-02-15 20:35:00,56.0,56.0,30.06,SE,135,0.0,0.0,100,0.00,,,0.05,Weather View 32 v70,2013-02-16 01:35:00,
2013-02-15 20:40:00,56.0,55.7,30.06,SE,135,0.0,0.0,99,0.00,,,0.05,Weather View 32 v70,2013-02-16 01:40:00,
2013-02-15 20:45:00,56.0,55.7,30.06,SE,135,0.0,0.0,99,0.00,,,0.05,Weather View 32 v70,2013-02-16 01:45:00,
2013-02-15 20:50:00,56.0,55.7,30.06,SE,135,0.0,0.0,99,0.00,,,0.05,Weather View 32 v70,2013-02-16 01:50:00,
2013-02-15 20:55:00,56.0,55.7,30.06,SE,135,0.0,0.0,99,0.00,,,0.05,Weather View 32 v70,2013-02-16 01:55:00,
2013-02-15 21:00:00,56.0,55.7,30.06,SE,135,0.0,0.0,99,0.00,,,0.05,Weather View 32 v70,2013-02-16 02:00:00,
2013-02-15 21:05:00,55.0,54.7,30.06,SSW,202,0.0,0.0,99,0.00,,,0.05,Weather View 32 v70,2013-02-16 02:05:00,
2013-02-15 21:10:00,55.0,55.0,30.06,SE,135,0.0,0.0,100,0.00,,,0.05,Weather View 32 v70,2013-02-16 02:10:00,
2013-02-15 21:15:00,55.0,55.0,30.06,SE,135,0.0,0.0,100,0.00,,,0.05,Weather View 32 v70,2013-02-16 02:15:00,
2013-02-15 21:20:00,56.0,56.0,30.06,SE,135,0.0,0.0,100,0.00,,,0.05,Weather View 32 v70,2013-02-16 02:20:00,
2013-02-15 21:30:00,56.0,56.0,30.07,SE,135,0.0,0.0,100,0.00,,,0.05,Weather View 32 v70,2013-02-16 02:30:00,
2013-02-15 21:35:00,56.0,56.0,30.07,SE,135,0.0,0.0,100,0.00,,,0.05,Weather View 32 v70,2013-02-16 02:35:00,
2013-02-15 21:40:00,56.0,56.0,30.07,SE,135,0.0,0.0,100,0.00,,,0.05,Weather View 32 v70,2013-02-16 02:40:00,
2013-02-15 21:45:00,56.0,56.0,30.07,SE,135,0.0,0.0,100,0.00,,,0.05,Weather View 32 v70,2013-02-16 02:45:00,
2013-02-15 21:48:00,56.0,56.0,30.07,SE,135,0.0,0.0,100,0.00,,,0.05,Weather View 32 v70,2013-02-16 02:48:00,
2013-02-15 21:50:00,56.0,56.0,30.07,SE,135,0.0,0.0,100,0.00,,,0.05,Weather View 32 v70,2013-02-16 02:50:00,
2013-02-15 21:55:00,56.0,56.0,30.07,SE,135,0.0,0.0,100,0.00,,,0.05,Weather View 32 v70,2013-02-16 02:55:00,
2013-02-15 22:00:00,57.0,57.0,30.07,SE,135,0.0,0.0,100,0.00,,,0.05,Weather View 32 v70,2013-02-16 03:00:00,
2013-02-15 22:05:00,57.0,57.0,30.07,SE,135,0.0,0.0,100,0.00,,,0.05,Weather View 32 v70,2013-02-16 03:05:00,
2013-02-15 22:10:00,57.0,57.0,30.07,SE,135,0.0,0.0,100,0.00,,,0.05,Weather View 32 v70,2013-02-16 03:10:00,
2013-02-15 22:15:00,57.0,57.0,30.07,SE,135,0.0,0.0,100,0.00,,,0.05,Weather View 32 v70,2013-02-16 03:15:00,
2013-02-15 22:20:00,57.0,57.0,30.07,SE,135,0.0,0.0,100,0.00,,,0.05,Weather View 32 v70,2013-02-16 03:20:00,
2013-02-15 22:25:00,57.0,57.0,30.07,SE,135,0.0,0.0,100,0.00,,,0.05,Weather View 32 v70,2013-02-16 03:25:00,
2013-02-15 22:30:00,57.0,57.0,30.07,SE,135,0.0,0.0,100,0.00,,,0.05,Weather View 32 v70,2013-02-16 03:30:00,
2013-02-15 22:35:00,57.0,57.0,30.08,SE,135,0.0,0.0,100,0.00,,,0.05,Weather View 32 v70,2013-02-16 03:35:00,
2013-02-15 22:40:00,57.0,57.0,30.08,SE,135,0.0,0.0,100,0.00,,,0.05,Weather View 32 v70,2013-02-16 03:40:00,
2013-02-15 22:45:00,57.0,57.0,30.07,SE,135,0.0,0.0,100,0.00,,,0.05,Weather View 32 v70,2013-02-16 03:45:00,
2013-02-15 22:49:00,57.0,57.0,30.07,SE,135,0.0,0.0,100,0.00,,,0.05,Weather View 32 v70,2013-02-16 03:49:00,
2013-02-15 22:55:00,58.0,58.0,30.06,SE,135,0.0,0.0,100,0.00,,,0.05,Weather View 32 v70,2013-02-16 03:55:00,
2013-02-15 23:00:00,58.0,58.0,30.06,SE,135,0.0,0.0,100,0.00,,,0.05,Weather View 32 v70,2013-02-16 04:00:00,
2013-02-15 23:10:00,58.0,58.0,30.06,SE,135,0.0,0.0,100,0.00,,,0.05,Weather View 32 v70,2013-02-16 04:10:00,
2013-02-15 23:15:00,59.0,59.0,30.06,SE,135,0.0,0.0,100,0.00,,,0.05,Weather View 32 v70,2013-02-16 04:15:00,
2013-02-15 23:20:00,59.0,59.0,30.06,SE,135,0.0,0.0,100,0.00,,,0.05,Weather View 32 v70,2013-02-16 04:20:00,
2013-02-15 23:25:00,59.0,59.0,30.05,SE,135,0.0,0.0,100,0.00,,,0.05,Weather View 32 v70,2013-02-16 04:25:00,
2013-02-15 23:30:00,59.0,59.0,30.05,SE,135,0.0,0.0,100,0.00,,,0.05,Weather View 32 v70,2013-02-16 04:30:00,
2013-02-15 23:35:00,59.0,59.0,30.06,SE,135,0.0,0.0,100,0.00,,,0.05,Weather View 32 v70,2013-02-16 04:35:00,
2013-02-15 23:40:00,59.0,59.0,30.06,SE,135,0.0,0.0,100,0.00,,,0.05,Weather View 32 v70,2013-02-16 04:40:00,
2013-02-15 23:45:00,59.0,59.0,30.05,SE,135,0.0,0.0,100,0.00,,,0.05,Weather View 32 v70,2013-02-16 04:45:00,
2013-02-15 23:50:00,59.0,59.0,30.05,SE,135,0.0,0.0,100,0.00,,,0.05,Weather View 32 v70,2013-02-16 04:50:00,
2013-02-15 23:55:00,59.0,59.0,30.05,SE,135,0.0,0.0,100,0.00,,,0.05,Weather View 32 v70,2013-02-16 04:55:00,